カタログに戻る

TITAN 3D DEB

運用中PO
NORAD 6823·DEBRIS·🇺🇸 United States

打ち上げ Oct 10, 1972 から Vandenberg Space Force Base

Loading…

次のパス (今後24時間)

TLE

最新Source: Space-Track

元期: Sep 13, 2026, 03:03 UTC

1 06823U 72079D   26256.12721846 -.00000020  00000-0 -43469-4 0  9990
2 06823  95.8079 313.7327 0053199  91.2933 297.1488 12.54880377468764

AllMySatでTITAN 3D DEBをリアルタイム追跡

Download on the App Store